User: anonymous
Location: Unspecified
(0.0000°N, 0.0000°E)
Time: 23:55:31
(UTC+00:00)
Language:

SO-67 - Orbit

View from above orbital plane
View from above orbital plane
View from above satellite
View from above satellite

Ground track
Ground track

The orbit data is extracted from the following two-line orbital elements,

1 35870U 09049F   14114.86043264  .00012430  00000-0  40171-3 0   840
2 35870 097.1646 137.7958 0000608 073.1644 041.6208 15.32221946255881
Epoch (UTC): 24 April 2014 20:39:01
Eccentricity: 0.0000608
inclination: 97.1646°
perigee height: 469 km
apogee height: 469 km
right ascension of ascending node: 137.7958°
argument of perigee: 73.1644°
revolutions per day: 15.32221946
mean anomaly at epoch: 41.6208°
orbit number at epoch: 25588

The dashed part of the orbit path shows where the satellite is in the earth's shadow,  

DLR